When you browse on this site, cookies collect data to enhance your experience and personalize the content and advertising you see.
Visit our Privacy Policy to learn more. By continuing to use the site, you agree to this use of cookies and data.
  • In Austria
  • List of Countries
  • For 7 days
  • Water Temperature
  • Satellite Maps
  • Weather Map
  • News
  • Weather Widgets
  • user-avatar
    Login

    Hourly Weather Batina

    Today, 16 January, Wednesday

    Time Temperature Precipitation Wind Pressure Humidity
    00:00 +4°C° 0 mm 2 mps 671 mmHg 59%
    01:00 +4°C° 0 mm 2 mps 671 mmHg 58%
    02:00 +3°C° 0 mm 2 mps 671 mmHg 58%
    03:00 +3°C° 0 mm 2 mps 671 mmHg 57%
    04:00 +3°C° 0 mm 2 mps 671 mmHg 59%
    05:00 +3°C° 0 mm 2 mps 671 mmHg 60%
    06:00 +2°C° 0 mm 2 mps 671 mmHg 61%
    07:00 +4°C° 0 mm 2 mps 671 mmHg 57%
    08:00 +5°C° 0 mm 2 mps 672 mmHg 54%
    09:00 +7°C° 0 mm 2 mps 672 mmHg 50%
    10:00 +8°C° 0 mm 3 mps 672 mmHg 47%
    11:00 +9°C° 0 mm 3 mps 672 mmHg 45%
    12:00 +10°C° 0 mm 3 mps 672 mmHg 42%
    13:00 +10°C° 0 mm 3 mps 672 mmHg 43%
    14:00 +10°C° 0 mm 3 mps 671 mmHg 44%
    15:00 +10°C° 0 mm 3 mps 671 mmHg 44%
    16:00 +9°C° 0 mm 3 mps 671 mmHg 51%
    17:00 +7°C° 0 mm 2 mps 670 mmHg 57%
    18:00 +6°C° 0 mm 2 mps 670 mmHg 63%
    19:00 +6°C° 0 mm 2 mps 670 mmHg 67%
    20:00 +5°C° 0 mm 2 mps 670 mmHg 70%
    21:00 +5°C° 0 mm 2 mps 671 mmHg 73%
    22:00 +4°C° 0 mm 2 mps 670 mmHg 74%
    23:00 +4°C° 0 mm 2 mps 670 mmHg 76%

    Tomorrow, 17 January, Thursday

    Time Temperature Precipitation Wind Pressure Humidity
    00:00 +4°C° 0 mm 2 mps 670 mmHg 77%
    01:00 +3°C° 0 mm 2 mps 670 mmHg 77%
    02:00 +3°C° 0 mm 2 mps 669 mmHg 77%
    03:00 +3°C° 0 mm 2 mps 669 mmHg 76%
    04:00 +2°C° 0 mm 2 mps 669 mmHg 76%
    05:00 +2°C° 0 mm 2 mps 669 mmHg 76%
    06:00 +2°C° 0 mm 2 mps 669 mmHg 75%
    07:00 +3°C° 0 mm 2 mps 669 mmHg 68%
    08:00 +5°C° 0 mm 2 mps 669 mmHg 61%
    09:00 +6°C° 0 mm 2 mps 670 mmHg 54%
    10:00 +7°C° 0 mm 2 mps 670 mmHg 49%
    11:00 +8°C° 0 mm 2 mps 670 mmHg 44%
    12:00 +9°C° 0 mm 2 mps 670 mmHg 39%
    13:00 +9°C° 0 mm 2 mps 669 mmHg 38%
    14:00 +9°C° 0 mm 2 mps 669 mmHg 38%
    15:00 +9°C° 0 mm 2 mps 669 mmHg 38%
    16:00 +8°C° 0 mm 2 mps 669 mmHg 44%
    17:00 +8°C° 0 mm 1 mps 669 mmHg 50%
    18:00 +7°C° 0 mm 1 mps 668 mmHg 56%
    19:00 +6°C° 0 mm 1 mps 668 mmHg 60%
    20:00 +4°C° 0 mm 0 mps 669 mmHg 63%
    21:00 +4°C° 0 mm 0 mps 669 mmHg 66%
    22:00 +3°C° 0 mm 0 mps 668 mmHg 68%
    23:00 +3°C° 0 mm 0 mps 668 mmHg 70%

    Day after tomorrow, 18 January, Friday

    Time Temperature Precipitation Wind Pressure Humidity
    00:00 +3°C° 0 mm 0 mps 668 mmHg 72%
    01:00 +2°C° 0 mm 0 mps 668 mmHg 73%
    02:00 +2°C° 0 mm 0 mps 668 mmHg 75%
    03:00 +2°C° 0 mm 0 mps 668 mmHg 76%
    04:00 +2°C° 0 mm 0 mps 667 mmHg 77%
    05:00 +1°C° 0 mm 0 mps 667 mmHg 78%
    06:00 +1°C° 0 mm 0 mps 667 mmHg 79%
    07:00 +3°C° 0 mm 0 mps 668 mmHg 70%
    08:00 +5°C° 0 mm 0 mps 669 mmHg 61%
    09:00 +8°C° 0 mm 1 mps 670 mmHg 52%
    10:00 +9°C° 0 mm 1 mps 670 mmHg 49%
    11:00 +9°C° 0 mm 1 mps 670 mmHg 45%
    12:00 +10°C° 0 mm 1 mps 670 mmHg 42%
    13:00 +10°C° 0 mm 1 mps 669 mmHg 41%
    14:00 +10°C° 0 mm 2 mps 669 mmHg 39%
    15:00 +10°C° 0 mm 2 mps 669 mmHg 38%
    16:00 +9°C° 0 mm 1 mps 669 mmHg 44%
    17:00 +8°C° 0 mm 1 mps 669 mmHg 49%
    18:00 +7°C° 0 mm 1 mps 668 mmHg 54%
    19:00 +6°C° 0 mm 1 mps 669 mmHg 58%
    20:00 +6°C° 0 mm 1 mps 669 mmHg 61%
    21:00 +5°C° 0 mm 1 mps 669 mmHg 64%
    22:00 +5°C° 0 mm 1 mps 669 mmHg 67%
    23:00 +4°C° 0 mm 1 mps 668 mmHg 69%

    19 January, Saturday

    Time Temperature Precipitation Wind Pressure Humidity
    00:00 +4°C° 0 mm 1 mps 668 mmHg 72%
    01:00 +4°C° 0 mm 1 mps 668 mmHg 73%
    02:00 +4°C° 0 mm 1 mps 668 mmHg 74%
    03:00 +3°C° 0 mm 1 mps 668 mmHg 75%
    04:00 +3°C° 0 mm 1 mps 667 mmHg 77%
    05:00 +3°C° 0 mm 1 mps 667 mmHg 78%
    06:00 +3°C° 0 mm 1 mps 667 mmHg 80%
    07:00 +4°C° 0 mm 1 mps 668 mmHg 73%
    08:00 +6°C° 0 mm 1 mps 669 mmHg 67%
    09:00 +7°C° 0 mm 1 mps 669 mmHg 60%
    10:00 +8°C° 0 mm 1 mps 669 mmHg 57%
    11:00 +9°C° 0 mm 1 mps 669 mmHg 53%
    12:00 +9°C° 0 mm 2 mps 669 mmHg 49%
    13:00 +9°C° 0.1 mm 2 mps 669 mmHg 49%
    14:00 +9°C° 0.1 mm 2 mps 669 mmHg 49%
    15:00 +9°C° 0.1 mm 2 mps 668 mmHg 48%
    16:00 +8°C° 0 mm 2 mps 668 mmHg 53%
    17:00 +7°C° 0 mm 2 mps 668 mmHg 57%
    18:00 +7°C° 0 mm 1 mps 668 mmHg 61%
    19:00 +6°C° 0 mm 1 mps 668 mmHg 65%
    20:00 +6°C° 0 mm 1 mps 669 mmHg 68%
    21:00 +5°C° 0 mm 1 mps 669 mmHg 71%
    22:00 +5°C° 0 mm 1 mps 668 mmHg 73%
    23:00 +4°C° 0 mm 2 mps 668 mmHg 75%

    20 January, Sunday

    Time Temperature Precipitation Wind Pressure Humidity
    00:00 +3°C° 0 mm 2 mps 668 mmHg 76%
    01:00 +3°C° 0 mm 2 mps 668 mmHg 79%
    02:00 +3°C° 0 mm 2 mps 667 mmHg 81%
    03:00 +2°C° 0 mm 3 mps 667 mmHg 83%
    04:00 +2°C° 0 mm 3 mps 667 mmHg 83%
    05:00 +2°C° 0 mm 3 mps 667 mmHg 83%
    06:00 +2°C° 0 mm 3 mps 667 mmHg 84%
    07:00 +3°C° 0 mm 3 mps 667 mmHg 78%
    08:00 +4°C° 0 mm 4 mps 668 mmHg 73%
    09:00 +5°C° 0 mm 5 mps 668 mmHg 68%
    10:00 +6°C° 0 mm 5 mps 668 mmHg 67%
    11:00 +7°C° 0 mm 6 mps 668 mmHg 66%
    12:00 +8°C° 0 mm 6 mps 667 mmHg 65%
    13:00 +7°C° 0.1 mm 6 mps 667 mmHg 68%
    14:00 +7°C° 0.1 mm 6 mps 666 mmHg 71%
    15:00 +5°C° 0.1 mm 6 mps 665 mmHg 74%
    16:00 +6°C° 0.1 mm 5 mps 665 mmHg 77%
    17:00 +5°C° 0.1 mm 4 mps 665 mmHg 80%
    18:00 +5°C° 0.1 mm 4 mps 665 mmHg 84%
    19:00 +5°C° 0.4 mm 4 mps 666 mmHg 84%
    20:00 +5°C° 0.4 mm 4 mps 666 mmHg 84%
    21:00 +5°C° 0.4 mm 3 mps 666 mmHg 85%
    22:00 +5°C° 0.3 mm 3 mps 666 mmHg 86%
    23:00 +5°C° 0.3 mm 3 mps 666 mmHg 87%

    21 January, Monday

    Time Temperature Precipitation Wind Pressure Humidity
    00:00 +4°C° 0.3 mm 4 mps 666 mmHg 88%
    01:00 +4°C° 0 mm 3 mps 665 mmHg 90%
    02:00 +4°C° 0 mm 3 mps 665 mmHg 91%
    03:00 +3°C° 0 mm 3 mps 665 mmHg 92%
    04:00 +3°C° 0 mm 3 mps 665 mmHg 92%
    05:00 +3°C° 0 mm 3 mps 665 mmHg 92%
    06:00 +2°C° 0 mm 3 mps 666 mmHg 92%
    07:00 +3°C° 0 mm 3 mps 666 mmHg 83%
    08:00 +4°C° 0 mm 4 mps 667 mmHg 75%
    09:00 +5°C° 0 mm 4 mps 667 mmHg 67%
    10:00 +5°C° 0 mm 5 mps 667 mmHg 63%
    11:00 +6°C° 0 mm 5 mps 668 mmHg 59%
    12:00 +6°C° 0 mm 5 mps 668 mmHg 55%
    13:00 +6°C° 0 mm 4 mps 668 mmHg 54%
    14:00 +6°C° 0 mm 4 mps 667 mmHg 54%
    15:00 +6°C° 0 mm 4 mps 667 mmHg 53%
    16:00 +7°C° 0 mm 3 mps 668 mmHg 57%
    17:00 +6°C° 0 mm 2 mps 668 mmHg 61%
    18:00 +6°C° 0 mm 1 mps 668 mmHg 65%
    19:00 +6°C° 0.1 mm 1 mps 668 mmHg 70%
    20:00 +5°C° 0.1 mm 1 mps 668 mmHg 74%
    21:00 +4°C° 0.1 mm 1 mps 668 mmHg 78%
    22:00 +4°C° 0 mm 1 mps 668 mmHg 81%
    23:00 +3°C° 0 mm 1 mps 668 mmHg 83%
    Show more